Regional Weather Roundup
Issued by NWS

Home | Current Version | Previous Version | Graphics & Text | Print | Product List | Glossary Off
Versions: 1 2 3 4 5 6 7 8 9 10 11 12 13 14 15 16 17 18 19 20 21 22 23 24 25 26 27 28 29 30 31 32 33 34 35 36 37 38 39 40 41 42 43 44 45 46 47 48 49 50

000
ASUS43 KTOP 230508
RWRKS

WEATHER ROUNDUP FOR KANSAS
NATIONAL WEATHER SERVICE GOODLAND KS
1200 AM CDT SAT AUG 23 2014

NOTE:  "FAIR" INDICATES FEW OR NO CLOUDS BELOW 12,000 FEET WITH NO
SIGNIFICANT WEATHER AND/OR OBSTRUCTIONS TO VISIBILITY.

KSZ001>006-013>018-027>032-041>047-230600-
NORTHWEST KANSAS

CITY           SKY/WX    TMP DP  RH WIND       PRES   REMARKS
GOODLAND       CLOUDY    65  64  97 CALM      29.98F
HAYS           CLOUDY    73  66  78 NE7       29.89F
HILL CITY      LGT RAIN  73  65  75 SE9       29.91F
RUSSELL        MOCLDY    77  67  71 N7        29.88R
$$

KSZ061>065-074>080-084>089-230600-
SOUTHWEST KANSAS

CITY           SKY/WX    TMP DP  RH WIND       PRES   REMARKS
DODGE CITY     PTCLDY    78  59  51 S9        29.90S
ELKHART          N/A     72  62  71 N5          N/A
GARDEN CITY    MOCLDY    75  65  70 NW5       29.91S
GREAT BEND     PTCLDY    81  63  54 S10       29.87S
LIBERAL        MOCLDY    75  61  60 W16G26    29.97R THUNDER
PRATT          CLEAR     82  55  39 S14       29.90F
$$

KSZ066>073-081>083-090>101-230600-
SOUTHEAST KANSAS

CITY           SKY/WX    TMP DP  RH WIND       PRES   REMARKS
CHANUTE        CLEAR     82  72  71 S9        29.93S
COFFEYVILLE    CLEAR     83  70  64 S10       29.93R
HUTCHINSON     CLEAR     83  66  56 S13       29.88F
MEDICINE LODGE   N/A     84  61  45 S13       29.88S
NEWTON         CLEAR     84  63  48 S13       29.94R
PARSONS        CLEAR     82  71  69 S6        29.94S
WICHITA INTL   PTCLDY    85  65  51 S16       29.89S
WICHITA JABRA  CLEAR     84  66  54 S16G23    29.90S
WICHITA MCCONL CLEAR     84  66  54 S18G25    29.90F
WINFIELD       CLEAR     84  67  56 S16       29.92S
$$

KSZ007>012-019>026-033>040-048>060-102>105-230600-
NORTHEAST KANSAS

CITY           SKY/WX    TMP DP  RH WIND       PRES   REMARKS
CONCORDIA      CLOUDY    76  73  91 CALM      29.89F
EMPORIA        CLEAR     75  70  84 SE9       29.91S
LAWRENCE       PTCLDY    77  71  82 E7        29.92S
MANHATTAN      MOCLDY    81  67  62 NE5       29.88F
MARYSVILLE     CLOUDY    77  75  94 E6        29.89F
OLATHE IND     PTCLDY    77  70  79 SE5       29.94R
OLATHE EXE     PTCLDY    77  69  76 SE3       29.93S
SALINA         MOCLDY    83  69  62 SE7       29.87R
TOPEKA BILLARD MOCLDY    80  74  81 CALM      29.91S
TOPEKA FORBES  PTCLDY    79  71  76 E5        29.92R
$$


USA.gov is the U.S. government's official web portal to all federal, state and local government web resources and services.